Weather History for CYUY - January, 2012

Change the Weather History Date:

Friday, January 13, 2012

  Actual Average (CYVO) Record (CYVO)
Temperature  
Mean Temperature 5 °F -  
Max Temperature 19 °F 9 °F 44 °F (2005)
Min Temperature -11 °F -7 °F -36 °F (1999)
Degree Days  
Heating Degree Days 60    
Moisture  
Dew Point -0 °F    
Average Humidity 78    
Maximum Humidity 93    
Minimum Humidity 66    
Precipitation  
Precipitation 0.00 in - - ()
Sea Level Pressure  
Sea Level Pressure 29.57 in    
Wind  
Wind Speed 11 mph ()    
Max Wind Speed 20 mph    
Max Gust Speed 26 mph    
Visibility 5.6 miles    
Events Snow    
Averages and records for this station are not official NWS values.
T = Trace of Precipitation, MM = Missing Value Source: Averaged Metar Reports

Daily Weather History Graph

Daily Weather History Graph

Search for Another Location

Airport or City:

Trip Planner

Search our weather history database for the weather conditions in past years. The results will help you decide how hot, cold, wet, or windy it might be!

Date:

Astronomy

Jan. 13, 2012 Rise Set
Actual Time 9:02 AM AST 5:45 PM AST
Civil Twilight 8:27 AM AST 6:21 PM AST
Nautical Twilight 7:48 AM AST 7:00 PM AST
Astronomical Twilight 7:10 AM AST 7:37 PM AST
Moon 11:25 PM AST (1/13) 10:50 AM AST (1/13)
Length of Visible Light 9h 53m
Length of Day
8h 43m
Waning Gibbous, 79% of the Moon is Illuminated
Jan 13
Waning Gibbous
Jan 16
Last Quarter
Jan 23
New
Jan 31
First Quarter
Feb 7
Full

Hourly Weather History & Observations

Time (AST) Temp. Windchill Dew Point Humidity Pressure Visibility Wind Dir Wind Speed Gust Speed Precip Events Conditions
12:00 AM 19.4 °F 9.5 °F 17.6 °F 93% 29.45 in 2.5 mi NE 8.1 mph - N/A Snow Light Snow
12:12 AM - - - N/A% - 3.0 mi NNE 6.9 mph - N/A   Unknown
1:00 AM 19.4 °F 8.6 °F 17.6 °F 93% 29.43 in 4.0 mi NNE 9.2 mph - N/A Snow Light Snow
2:00 AM 19.4 °F 9.5 °F 17.6 °F 93% 29.42 in 8.0 mi NNE 8.1 mph - N/A Snow Light Snow
3:00 AM 19.4 °F 9.5 °F 17.6 °F 93% 29.42 in 2.5 mi NNE 8.1 mph - N/A Snow Light Snow
3:28 AM - - - N/A% - 1.8 mi North 8.1 mph - N/A   Unknown
4:00 AM 17.6 °F 2.7 °F 14.0 °F 86% 29.43 in 1.8 mi North 16.1 mph - N/A Snow Light Snow
4:45 AM - - - N/A% - 1.2 mi North 11.5 mph - N/A   Unknown
5:00 AM 12.2 °F -4.8 °F 6.8 °F 79% 29.45 in 1.5 mi North 17.3 mph - N/A Snow Light Snow
6:00 AM 8.6 °F -8.9 °F 5.0 °F 85% 29.46 in 2.0 mi North 16.1 mph - N/A Snow Light Snow
6:32 AM - - - N/A% - 1.2 mi North 11.5 mph - N/A   Unknown
7:00 AM 8.6 °F -6.3 °F 3.2 °F 79% 29.47 in 1.2 mi North 11.5 mph - N/A Snow Light Snow
7:37 AM - - - N/A% - 3.0 mi North 12.7 mph - N/A   Unknown
8:00 AM 6.8 °F -9.3 °F 1.4 °F 79% 29.49 in 4.0 mi North 12.7 mph - N/A Snow Light Snow
8:27 AM - - - N/A% - 2.5 mi North 13.8 mph - N/A   Unknown
9:00 AM 6.8 °F -7.8 °F 1.4 °F 79% 29.50 in 2.0 mi North 10.4 mph 17.3 mph N/A Snow Light Snow
10:00 AM 5.0 °F -10.8 °F -0.4 °F 78% 29.51 in 2.0 mi North 11.5 mph 19.6 mph N/A Snow Light Snow
10:31 AM - - - N/A% - 2.5 mi North 15.0 mph 23.0 mph N/A   Unknown
10:37 AM - - - N/A% - 3.0 mi North 18.4 mph 24.2 mph N/A   Unknown
11:00 AM 5.0 °F -14.7 °F -2.2 °F 72% 29.53 in 3.0 mi North 18.4 mph 25.3 mph N/A Snow Light Snow
11:10 AM - - - N/A% - 2.5 mi North 13.8 mph 20.7 mph N/A   Unknown
12:00 PM 5.0 °F -15.2 °F -2.2 °F 72% 29.54 in 2.0 mi North 19.6 mph 26.5 mph N/A Snow Light Snow
1:00 PM 3.2 °F -13.9 °F -4.0 °F 72% 29.55 in 2.0 mi North 12.7 mph 26.5 mph N/A Snow Light Snow
2:00 PM 3.2 °F -15.3 °F -4.0 °F 72% 29.55 in 2.0 mi North 15.0 mph - N/A Snow Light Snow
4:00 PM 1.4 °F -18.8 °F -7.6 °F 66% 29.60 in 3.0 mi North 17.3 mph 25.3 mph N/A Snow Light Snow
5:00 PM -0.4 °F -19.2 °F -9.4 °F 66% 29.65 in 15.0 mi North 13.8 mph - N/A Snow Light Snow
5:21 PM - - - N/A% - 15.0 mi North 13.8 mph 20.7 mph N/A   Mostly Cloudy
6:00 PM -4.0 °F -20.2 °F -9.4 °F 78% 29.69 in 15.0 mi NNW 9.2 mph - N/A   Mostly Cloudy
7:00 PM -4.0 °F -24.5 °F -11.2 °F 71% 29.73 in 15.0 mi NNW 15.0 mph 21.9 mph N/A   Mostly Cloudy
8:00 PM -5.8 °F -27.5 °F -13.0 °F 71% 29.79 in 15.0 mi North 16.1 mph 23.0 mph N/A   Scattered Clouds
9:00 PM -7.6 °F -27.5 °F -14.8 °F 71% 29.82 in 15.0 mi North 12.7 mph 19.6 mph N/A   Partly Cloudy
10:00 PM -9.4 °F -29.8 °F -16.6 °F 71% 29.85 in 15.0 mi NNW 12.7 mph 18.4 mph N/A   Scattered Clouds
11:00 PM -11.2 °F -31.1 °F -18.4 °F 70% 29.89 in 15.0 mi NNW 11.5 mph - N/A   Partly Cloudy